Back to catalog

COSMOS 1241

AliveMilitaryLEO
NORAD 12149·PAYLOAD·🇷🇺 Russia

Launched Jan 21, 1981 from Plesetsk Cosmodrome

Loading…

Next Passes (next 24 hours)

TLE

FreshSource: Space-Track

Epoch: Sep 14, 2026, 11:18 UTC

1 12149U 81006A   26257.47096163 -.00000078  00000-0  22575-5 0  9992
2 12149  65.8222 272.0536 0003876  80.0849  82.0341 13.72234383287058

Track COSMOS 1241 in real time with AllMySat

Download on the App Store